Change the Weather History Date:

Saturday, July 13, 2013

  Actual Average Record
Temperature  
Mean Temperature 85 °F -  
Max Temperature 93 °F 88 °F 93 °F (2008)
Min Temperature 77 °F 73 °F 39 °F (1997)
Cooling Degree Days 20    
Growing Degree Days 35 (Base 50)    
Moisture  
Dew Point 71 °F    
Average Humidity 64    
Maximum Humidity 79    
Minimum Humidity 46    
Precipitation  
Precipitation 0.00 in - - ()
Sea Level Pressure  
Sea Level Pressure 29.91 in    
Wind  
Wind Speed 7 mph ()    
Max Wind Speed 29 mph    
Max Gust Speed 40 mph    
Visibility 6.2 miles    
Events Rain , Thunderstorm    
Averages and records for this station are not official NWS values.
T = Trace of Precipitation, MM = Missing Value Source: Averaged Metar Reports

Daily Weather History Graph

Daily Weather History Graph

Search for Another Location

Airport or City:

Trip Planner

Search our weather history database for the weather conditions in past years. The results will help you decide how hot, cold, wet, or windy it might be!

Date:

Astronomy

Jul. 13, 2013 Rise Set
Actual Time 4:54 AM JST 7:12 PM JST
Civil Twilight 4:25 AM JST 7:41 PM JST
Nautical Twilight 3:50 AM JST 8:17 PM JST
Astronomical Twilight 3:11 AM JST 8:56 PM JST
Moon 9:20 AM JST (7/13) 9:49 PM JST (7/13)
Length of Visible Light 15h 16m
Length of Day
14h 18m
Waxing Crescent, 21% of the Moon is Illuminated
Jul 13
Waxing Crescent
Jul 16
First Quarter
Jul 23
Full
Jul 30
Last Quarter
Aug 7
New

Hourly Weather History & Observations

Time (JST) Temp. Heat Index Dew Point Humidity Pressure Visibility Wind Dir Wind Speed Gust Speed Precip Events Conditions
5:00 AM 82.4 °F 89.5 °F 75.2 °F 79% 29.86 in 6.2 mi WSW 6.9 mph - N/A   Scattered Clouds
6:00 AM 82.4 °F 89.5 °F 75.2 °F 79% 29.89 in 6.2 mi WSW 5.8 mph - N/A   Mostly Cloudy
7:00 AM 84.2 °F 90.9 °F 73.4 °F 70% 29.89 in 6.2 mi WSW 5.8 mph - N/A   Mostly Cloudy
8:00 AM 86.0 °F 95.1 °F 75.2 °F 70% 29.92 in 6.2 mi SW 6.9 mph - N/A   Mostly Cloudy
9:00 AM 86.0 °F 93.4 °F 73.4 °F 66% 29.92 in 6.2 mi SW 6.9 mph - N/A   Mostly Cloudy
10:00 AM 86.0 °F 93.4 °F 73.4 °F 66% 29.92 in 6.2 mi SW 6.9 mph - N/A   Mostly Cloudy
10:36 AM 89.6 °F 98.2 °F 73.4 °F 59% 29.92 in 6.2 mi SW 8.1 mph - N/A   Partly Cloudy
11:00 AM 89.6 °F 98.2 °F 73.4 °F 59% 29.89 in 6.2 mi SW 10.4 mph - N/A   Partly Cloudy
12:00 PM 89.6 °F 96.2 °F 71.6 °F 55% 29.89 in 6.2 mi SW 10.4 mph - N/A   Partly Cloudy
12:25 PM 93.2 °F 102.4 °F 73.4 °F 52% 29.89 in 6.2 mi SSW 8.1 mph - N/A   Partly Cloudy
1:00 PM 91.4 °F 98.4 °F 71.6 °F 52% 29.89 in 6.2 mi SW 9.2 mph - N/A   Partly Cloudy
2:00 PM 93.2 °F 100.5 °F 71.6 °F 49% 29.86 in 6.2 mi SSW 9.2 mph - N/A   Partly Cloudy
3:00 PM 93.2 °F 98.8 °F 69.8 °F 46% 29.86 in 6.2 mi SW 12.7 mph - N/A   Partly Cloudy
4:00 PM 91.4 °F 96.8 °F 69.8 °F 49% 29.89 in 6.2 mi SW 12.7 mph - N/A   Scattered Clouds
4:17 PM 89.6 °F 93.4 °F 68.0 °F 49% 29.89 in 6.2 mi SE 8.1 mph - N/A   Mostly Cloudy
4:27 PM 84.2 °F 86.6 °F 66.2 °F 55% 29.92 in 6.2 mi East 6.9 mph 18.4 mph N/A Rain , Thunderstorm Thunderstorms and Rain
4:38 PM 80.6 °F 83.2 °F 68.0 °F 65% 29.95 in 6.2 mi North 28.8 mph 40.3 mph N/A Rain , Thunderstorm Heavy Thunderstorms and Rain
5:00 PM 77.0 °F - 69.8 °F 78% 29.95 in 6.2 mi North 10.4 mph - N/A Rain Rain Showers
5:08 PM 77.0 °F - 69.8 °F 78% 29.95 in 6.2 mi North 9.2 mph - N/A Rain , Thunderstorm Thunderstorms and Rain
5:28 PM 77.0 °F - 69.8 °F 78% 29.92 in 6.2 mi NNE 8.1 mph - N/A Rain Light Rain Showers
6:00 PM 78.8 °F - 69.8 °F 74% 29.95 in 6.2 mi NNE 8.1 mph - N/A   Scattered Clouds
7:00 PM 78.8 °F - 68.0 °F 69% 29.95 in 6.2 mi Variable 2.3 mph - N/A   Partly Cloudy
8:00 PM 77.0 °F - 69.8 °F 78% 29.95 in 6.2 mi East 5.8 mph - N/A   Scattered Clouds